RH
67 67 94 80 80 76 96 94 93 69 88 96 83 87 65 50 39 35 35 20 21 22 23 24 25 27 36 30 22 34 47 57 76 50 25 20 20 24 35 63 36 72 76 53
84 76 89 90 75 82 97 96 82 90 58 75 89 56 55 52 46 42 30 27 23 22 27 42 23 35 32 32 28 27 32 34 60 42 35 31 23 21 20 40 62 51 66 51
85 94 88 97 78 83 94 91 86 95 94 57 58 57 53 60 44 43 32 27 29 27 28 31 30 47 36 34 39 41 38 35 43 57 41 32 32 27 23 31 67 54 62 36
100 94 92 96 91 89 94 96 70 71 95 91 71 50 48 54 55 38 31 30 30 30 24 24 27 48 46 38 47 32 39 41 30 34 36 29 26 29 29 22 35 45 38 34
96 91 83 91 90 90 97 95 63 88 79 70 79 55 55 50 43 38 34 36 29 27 28 34 30 40 46 45 43 37 38 61 43 42 39 42 38 35 32 31 25 22 24 26
88 85 86 96 97 97 94 77 72 62 78 75 74 54 54 44 39 35 24 33 33 33 37 38 44 46 52 45 52 50 52 68 69 58 49 45 53 37 33 32 29 26 29 24
90 90 83 90 99 96 87 70 72 86 83 71 58 47 48 44 42 45 29 31 38 42 44 47 49 50 64 68 75 53 65 66 77 76 67 51 39 24 20 27 26 27 29 32
88 92 86 87 93 98 90 82 81 87 99 64 51 52 48 46 40 38 46 42 41 47 49 75 62 78 44 56 48 62 67 78 84 72 79 49 33 25 27 24 32 30 34 32
83 92 86 85 80 92 90 91 97 99 97 71 42 47 45 62 53 70 63 62 55 48 91 77 62 79 53 62 44 53 49 69 72 82 80 64 51 28 24 23 52 37 37 38
87 91 98 89 73 88 100 91 96 99 96 69 45 47 52 48 66 85 82 76 57 65 99 97 76 73 48 74 73 73 86 81 80 94 88 74 44 27 22 43 54 34 33 40
88 93 90 83 85 77 100 94 94 100 99 85 56 39 50 49 71 83 74 86 72 92 86 87 86 95 70 69 64 71 74 92 97 98 99 83 31 28 36 59 39 38 35 36
78 80 80 76 76 81 97 94 93 98 98 94 68 55 33 38 50 70 70 70 67 81 86 96 98 99 96 74 75 48 74 73 82 73 81 58 24 32 39 36 36 32 37 47
78 77 74 75 74 78 89 89 92 97 99 91 90 72 56 49 42 37 71 67 58 63 78 95 100 91 93 92 88 54 42 40 72 51 32 35 29 25 35 46 52 58 58 57
74 79 83 76 79 89 91 94 92 100 99 100 84 55 60 52 50 44 48 60 64 78 90 98 99 100 79 93 72 79 64 43 48 51 37 54 60 59 59 56 56 50 53 57
84 85 89 84 83 84 82 98 93 93 99 100 92 64 55 50 49 51 50 65 73 87 85 96 94 93 86 95 86 79 51 53 70 79 56 67 66 59 54 56 57 55 65 68
87 88 91 95 96 100 98 100 85 96 98 99 99 78 63 51 52 57 66 66 74 82 94 98 82 65 82 94 90 56 56 61 59 67 62 61 63 68 68 73 73 72 74 75
98 96 96 98 89 98 98 97 94 93 100 93 97 96 79 59 65 84 72 62 82 85 89 97 85 73 92 98 88 60 60 59 62 60 59 66 60 79 72 76 78 82 84 86
96 96 100 93 99 82 91 81 77 92 82 88 98 100 95 70 94 98 88 92 91 92 92 94 96 92 97 90 67 60 59 57 59 58 60 68 72 76 76 74 76 81 83 77
100 100 99 100 99 98 85 72 67 51 71 98 100 100 100 80 98 97 92 94 100 94 100 95 89 99 97 73 68 67 63 66 63 62 66 71 78 75 72 75 76 76 85 81
78 83 98 100 91 65 69 63 85 90 93 96 100 98 100 88 100 100 99 100 100 100 99 89 100 96 70 69 69 67 66 59 63 81 85 80 77 75 78 86 82 79 76 78
89 97 100 93 73 66 90 91 93 92 100 98 99 99 100 91 99 98 100 100 99 99 93 94 98 100 78 74 72 70 69 68 68 66 70 71 72 87 85 82 85 90 97 99
70 81 79 78 88 94 98 100 100 97 97 99 100 100 95 98 92 100 99 100 97 100 91 98 93 92 86 80 74 71 69 71 72 72 75 77 78 78 86 96 99 100 99 99
51 76 94 85 99 100 95 99 99 97 99 100 100 100 100 97 95 100 100 100 99 96 100 96 98 89 84 78 72 70 69 70 68 76 84 87 93 96 100 100 100 100 99 94
97 99 98 100 99 98 99 99 99 100 100 100 100 100 100 100 100 100 95 100 97 100 99 95 99 94 91 83 71 71 69 77 83 89 98 99 99 100 100 99 93 88 93 92
98 92 99 98 100 100 100 100 100 100 100 100 100 100 99 100 100 100 99 98 93 91 98 100 98 94 85 76 72 79 83 88 93 98 98 99 100 100 99 93 89 78 84 86
98 98 98 99 99 99 99 99 100 99 100 100 100 100 100 99 100 98 100 96 99 100 100 100 97 96 94 82 81 84 85 91 98 98 99 99 96 92 92 83 68 59 65 81
99 99 100 100 99 99 100 100 100 99 100 100 100 98 99 100 100 99 99 99 99 99 99 99 99 98 95 91 91 92 94 98 98 97 96 96 87 67 70 72 82 66 60 69
Wind_Speed
38 42 40 43 41 36 35 7 8 26 38 7 5 12 10 12 18 14 14 2 5 7 6 8 9 9 4 9 8 10 7 5 3 11 14 7 6 4 6 5 4 2 4 5
40 42 42 44 45 45 32 3 5 30 31 12 11 7 14 16 19 19 7 3 3 2 4 4 7 5 4 4 6 5 2 1 2 6 5 6 4 5 4 4 3 5 5 5
41 44 38 41 46 48 31 4 8 6 8 6 18 17 17 20 13 20 17 6 7 5 8 16 9 2 3 5 3 1 6 2 6 6 7 3 3 5 6 5 4 3 5 5
40 43 42 36 45 50 29 4 8 8 11 16 10 19 15 21 14 14 11 7 8 7 4 2 5 5 3 3 3 3 5 4 1 3 5 5 1 5 7 5 6 7 7 6
39 41 42 39 45 50 29 3 9 5 4 16 16 19 20 25 20 16 14 6 10 7 5 7 5 8 5 6 2 4 1 2 2 2 5 7 4 8 7 6 3 2 5 6
43 43 40 41 44 49 7 11 6 8 8 18 17 22 22 21 20 12 14 9 5 7 5 6 6 5 8 6 7 5 5 5 3 3 4 6 6 7 5 6 5 3 5 7
41 43 40 44 41 55 10 19 4 5 8 15 22 21 17 25 21 11 10 8 8 4 11 8 8 12 14 15 11 2 5 4 3 2 3 2 8 4 3 4 3 7 9 10
39 41 40 42 44 51 36 12 4 2 3 14 19 21 24 17 16 14 4 1 9 10 5 4 4 5 5 6 8 5 3 4 2 4 4 5 8 3 3 3 4 5 8 7
37 39 43 45 44 45 42 33 14 5 2 16 21 22 21 10 7 3 4 6 1 7 3 4 5 4 6 5 4 7 6 5 4 2 4 6 6 2 3 4 2 5 8 7
43 42 43 44 44 38 37 23 21 6 3 5 12 21 17 6 5 6 5 2 3 5 3 3 3 3 6 5 8 4 3 3 5 2 2 7 6 5 1 6 6 3 5 5
40 38 40 40 39 37 32 27 26 5 3 6 3 10 7 5 5 6 11 4 3 3 4 4 3 3 4 4 7 7 6 5 3 3 2 5 5 4 7 6 3 6 5 3
34 38 39 36 39 40 28 16 23 18 5 5 16 12 22 9 9 7 4 8 7 5 4 2 4 2 2 3 2 3 1 6 5 6 5 7 2 7 5 6 5 3 5 6
35 37 36 35 40 38 37 23 10 7 3 6 7 5 16 22 22 23 5 2 5 3 4 4 3 3 4 3 4 3 2 3 4 5 2 5 6 2 7 8 9 11 11 10
34 39 38 39 34 34 34 19 17 10 4 3 1 7 7 9 18 21 11 7 7 7 4 3 4 4 3 4 4 4 5 4 5 2 3 10 9 8 11 13 12 16 16 15
34 33 35 34 31 23 27 17 25 19 3 3 2 4 11 9 13 18 18 9 6 4 3 3 3 3 4 2 3 1 3 6 4 4 1 9 4 8 12 15 13 12 14 15
32 33 29 29 26 25 13 2 30 32 29 3 2 3 7 8 10 11 9 5 2 3 4 2 2 1 4 3 3 1 6 8 4 5 8 15 13 15 15 16 14 15 15 15
31 31 28 27 23 25 4 2 4 8 7 1 3 4 6 4 5 4 4 3 3 3 2 2 3 1 4 3 4 6 7 9 8 7 12 7 4 9 13 16 18 22 20 18
25 30 27 23 20 8 9 7 6 7 3 3 3 2 4 6 2 2 3 2 3 5 2 3 3 2 2 2 6 8 9 10 11 13 14 16 16 17 13 16 15 12 9 8
32 32 29 23 13 7 14 5 5 17 8 4 3 3 2 2 3 1 4 3 3 2 2 1 4 2 1 3 10 7 6 6 11 14 15 15 15 14 11 8 8 11 9 9
36 29 5 3 1 6 4 3 4 5 3 4 3 2 1 2 2 2 2 2 2 2 3 1 3 2 3 6 7 6 5 14 15 16 11 14 13 11 11 11 10 11 10 12
8 3 3 4 9 6 4 3 4 1 4 3 1 3 1 3 3 3 0 2 1 3 3 4 1 1 4 8 8 8 12 13 11 14 14 14 15 11 11 9 13 15 14 12
8 16 9 5 5 4 6 3 4 5 3 3 2 1 2 2 2 3 1 3 2 2 1 2 2 1 10 9 7 12 13 15 15 21 17 19 17 16 16 13 14 14 14 14
12 7 5 3 4 7 1 2 2 2 2 1 2 2 1 3 3 2 2 2 1 1 2 2 0 7 6 8 9 13 18 19 21 19 21 21 18 19 18 15 16 17 16 13
4 4 6 3 3 2 2 3 2 1 2 1 3 3 2 1 4 1 4 0 3 2 4 3 3 6 6 4 8 12 14 13 13 15 16 17 18 17 18 17 16 17 17 15
5 5 5 3 1 2 0 1 2 2 2 3 2 3 2 2 3 2 3 3 4 2 2 1 4 7 5 10 13 12 12 10 11 13 15 16 16 16 15 15 15 15 14 13
4 6 3 2 2 3 3 4 3 3 3 2 2 2 2 3 1 2 3 3 2 1 1 1 6 6 9 11 11 11 15 15 15 15 16 16 14 15 17 16 15 14 12 11
4 3 2 2 3 3 2 2 2 2 1 2 1 4 1 1 3 3 3 2 2 1 2 3 5 7 10 9 11 13 17 17 17 15 15 15 17 20 16 11 10 12 12 12
Wind_Direction
231 234 221 208 206 194 189 206 194 165 153 174 202 220 214 241 255 260 265 262 222 202 197 208 201 205 121 322 160 131 203 148 144 218 229 204 195 214 170 125 256 187 149 266
222 229 218 205 201 191 174 206 150 166 167 196 211 200 226 239 251 260 266 211 226 273 173 9 193 117 191 132 42 135 168 177 61 338 332 347 235 227 228 130 92 187 133 259
222 219 209 203 200 193 180 194 166 169 218 228 193 194 207 226 249 257 265 213 263 290 166 174 227 121 37 60 107 165 93 149 151 188 214 211 269 232 255 154 113 204 204 267
208 206 210 209 198 195 187 210 202 168 191 207 208 188 200 209 230 223 235 220 217 215 180 200 189 108 97 139 217 134 117 165 293 290 324 321 297 282 277 247 203 152 236 226
202 203 208 215 203 194 201 186 187 160 175 183 205 190 211 203 223 236 225 204 216 215 172 175 205 133 153 177 180 139 121 198 96 289 348 35 351 329 327 318 312 265 234 242
202 204 204 213 205 192 190 231 281 166 168 179 192 203 195 203 217 239 199 211 173 192 178 112 86 84 90 118 134 164 128 122 94 239 356 17 346 240 242 255 281 254 289 262
200 200 203 213 206 200 196 212 298 188 178 183 200 188 200 207 222 239 196 213 168 170 104 56 37 48 72 68 343 211 125 112 96 180 36 49 241 241 143 164 42 48 74 77
199 197 206 205 203 202 210 230 237 258 186 189 191 196 197 215 224 222 142 119 145 133 70 83 69 1 50 161 177 76 129 129 101 134 182 282 320 19 80 98 48 46 82 57
203 204 201 195 200 200 206 234 263 271 191 210 189 191 197 206 191 47 76 353 316 95 97 91 130 177 178 158 123 30 57 86 113 122 140 198 235 143 20 54 73 42 66 47
202 199 192 191 194 198 204 226 237 272 218 249 185 189 201 179 134 120 98 334 38 53 93 86 116 234 169 158 156 173 44 17 142 123 171 288 248 141 98 91 222 93 67 78
181 185 187 190 190 200 200 225 227 288 298 283 263 179 156 196 142 139 148 213 314 42 83 110 191 123 232 97 167 170 159 141 182 91 100 282 185 56 133 199 106 86 59 69
181 186 189 193 191 197 200 229 231 244 257 286 333 78 179 201 173 126 145 183 176 169 97 62 91 48 41 121 199 193 90 171 175 161 211 230 140 132 157 127 129 100 82 48
185 188 189 189 192 200 203 213 232 206 268 301 278 103 73 115 134 137 126 201 155 115 147 148 136 127 129 131 247 126 102 130 108 77 281 194 194 117 78 88 89 78 76 69
182 187 189 193 193 194 202 215 240 277 271 249 156 112 51 71 105 111 106 126 86 100 66 93 123 138 179 204 191 137 198 118 156 224 286 87 47 60 86 73 68 85 67 55
191 191 192 198 199 185 205 221 234 239 319 285 262 135 55 82 90 92 97 91 96 91 74 87 180 157 94 318 73 283 173 174 147 206 168 105 77 67 85 78 69 76 83 68
187 193 195 183 176 181 151 172 249 211 222 249 76 296 4 79 102 100 101 114 117 90 118 172 55 81 106 115 165 337 103 72 94 137 89 100 97 74 70 82 78 75 76 78
189 189 186 183 180 174 192 195 308 309 298 177 49 7 341 0 58 27 48 64 63 99 92 75 131 82 82 113 144 154 99 95 81 80 109 92 112 109 89 86 84 85 85 83
174 179 177 166 162 200 264 308 39 267 188 71 92 307 26 13 32 41 347 88 50 15 119 17 102 19 66 87 118 113 111 101 88 78 77 104 103 92 91 100 105 98 97 106
161 148 141 138 165 185 201 166 98 67 93 112 86 122 187 27 23 17 23 46 61 349 98 149 85 333 119 169 130 118 116 147 123 98 95 97 98 104 106 106 99 91 88 82
120 124 184 151 6 85 345 73 32 24 12 39 95 98 43 70 42 22 75 12 151 104 251 80 89 115 80 58 80 80 104 119 117 109 112 116 113 116 103 96 94 91 84 79
168 58 26 72 84 30 25 43 74 2 41 30 22 115 212 5 117 140 185 164 25 87 260 115 232 156 146 101 79 69 73 80 82 107 109 116 117 119 111 95 90 89 85 79
145 117 117 58 23 30 60 21 352 42 62 1 55 358 81 315 149 106 348 104 51 96 191 97 142 51 111 105 98 99 94 94 97 104 107 105 105 107 102 97 96 94 95 92
96 58 58 34 2 40 119 171 352 64 22 332 18 41 71 10 40 57 84 77 141 105 69 225 308 120 119 116 113 111 111 108 97 93 94 95 94 102 104 100 113 104 95 93
67 61 61 48 109 86 27 35 54 289 264 30 74 44 68 37 49 83 95 286 78 151 177 210 131 144 131 123 128 116 113 103 99 99 103 103 102 95 97 103 110 108 100 95
63 39 57 61 111 51 53 206 102 347 275 37 48 42 77 26 88 62 122 145 171 155 147 100 139 139 132 106 105 105 105 104 104 117 118 113 111 109 106 110 110 106 107 104
52 40 58 5 60 21 20 17 18 353 351 355 62 138 87 51 95 80 28 116 74 90 60 97 123 111 102 116 110 116 120 122 124 124 124 123 124 124 123 122 111 101 101 114
43 28 6 34 60 41 28 341 300 272 71 61 34 60 74 262 76 61 15 46 37 87 93 90 95 103 120 125 130 120 121 118 120 119 119 122 133 132 120 113 146 112 93 90